Regional Weather Roundup
Issued by NWS

Home | Current Version | Previous Version | Text Only | Print | Product List | Glossary On
Versions: 1 2 3 4 5 6 7 8 9 10 11 12 13 14 15 16 17 18 19 20 21 22 23 24 25 26 27 28 29 30 31 32 33 34 35 36 37 38 39 40 41 42 43 44 45 46 47 48 49 50
000
ASUS46 KSTO 081915
RWRCA

NORTHERN AND CENTRAL CA REGIONAL WEATHER ROUNDUP
NATIONAL WEATHER SERVICE SACRAMENTO CA
1100 AM PST THU DEC 08 2016

NOTE: FAIR INDICATES FEW OR NO CLOUDS BELOW 12,000 FEET WITH NO
SIGNIFICANT WEATHER AND/OR OBSTRUCTIONS TO VISIBILITY.

CAZ001-003-082000-
NORTHWEST AREA

CITY           SKY/WX    TMP DP  RH WIND       PRES   REMARKS
CRESCENT CITY  LGT RAIN  52  51  97 S23G33    29.90S FOG
UKIAH          LGT RAIN  44  43  96 CALM      30.11F FOG
$$

CAZ006-505>513-082000-
BAY AREA

CITY           SKY/WX    TMP DP  RH WIND       PRES   REMARKS
SANTA ROSA     LGT RAIN  48  47  96 NW5       30.10F FOG
SAN RAFAEL     N/A       48  MM  MM MISG
NAPA           CLOUDY    51  47  86 E12       30.14R FOG
CONCORD        LGT RAIN  48  45  89 N3        30.15R FOG
OAKLAND CITY   N/A       53  MM  MM MISG
OAKLAND        LGT RAIN  58  55  90 SE14      30.12F FOG
SAN FRAN CITY  N/A       52  MM 100 MISG
SAN FRAN ARPT  LGT RAIN  53  51  93 N5        30.12S FOG
LIVERMORE      CLOUDY    53  51  93 SE3       30.12F FOG
HAYWARD        CLOUDY    60  50  69 S12       30.12S
REDWOOD CITY   N/A       58  MM  97 MISG
MOFFETT ARPT   MOSUNNY   61  52  72 SE12      30.13S
SAN JOSE ARPT  LGT RAIN  58  51  78 SE17      30.14S
$$
CAZ034-037-514>518-082000-
CENTRAL COAST

CITY           SKY/WX    TMP DP  RH WIND       PRES   REMARKS
SALINAS        CLOUDY    55  50  83 E23G29    30.15S
MONTEREY       PTSUNNY   65  57  75 S13G18    30.14S
SAN LUIS OBISP LGT RAIN  57  54  89 SE8       30.25S FOG
SANTA MARIA    CLOUDY    62  53  72 S7        30.26S
$$
CAZ015-016-082000-
NORTHERN SACRAMENTO VALLEY

CITY           SKY/WX    TMP DP  RH WIND       PRES   REMARKS
REDDING        CLOUDY    41  40  96 NW5       30.17S FOG
RED BLUFF      CLOUDY    39  38  96 NW5       30.18F FOG
OROVILLE       LGT RAIN  44  42  93 W5        30.20R FOG
$$
CAZ016>018-082000-
SOUTHERN SACRAMENTO VALLEY

CITY           SKY/WX    TMP DP  RH WIND       PRES   REMARKS
AUBURN         CLOUDY    50  48  93 S9        30.15S
BEALE AFB      DRIZZLE   47  47 100 SW5       30.16S FOG
LINCOLN        CLOUDY    43  43 100 SW5       30.17S
MARYSVILLE     LGT RAIN  44  43  96 CALM      30.19S FOG
SAC INTL ARPT  LGT RAIN  42  42 100 N7        30.17F FOG
MATHER AIRPORT LGT RAIN  50  50 100 SE12G22   30.17F FOG
DOWNTOWN SAC   N/A       50  MM  MM MISG
SAC EXEC ARPT  LGT RAIN  50  50 100 S7        30.18R FOG
VACAVILLE      LGT RAIN  43  43 100 N6        30.19S FOG
TRAVIS AFB     CLOUDY    45  43  93 N12       30.14F
$$
CAZ019>021-082000-
SAN JOAQUIN VALLEY

CITY           SKY/WX    TMP DP  RH WIND       PRES   REMARKS
STOCKTON       LGT RAIN  52  49  89 SE22G30   30.17F
MODESTO        CLOUDY    53  47  79 SE9       30.20S
MERCED         CLOUDY    52  48  86 SE17      30.22S FOG
LEMOORE        DRIZZLE   53  47  79 SE13      30.24F
FRESNO         CLOUDY    52  49  89 SE10      30.26R
HANFORD        CLOUDY    53  48  83 SE7       30.26F HAZE
PORTERVILLE    LGT RAIN  55  53  93 NE6       30.25F
BAKERSFIELD    CLOUDY    59  43  55 CALM      30.23F HAZE
$$
CAZ011-012-071-082000-
NORTHERN MOUNTAINS

CITY           SKY/WX    TMP DP  RH WIND       PRES   REMARKS
YREKA          CLOUDY    35  30  82 NE8       29.97R WCI  29
MOUNT SHASTA   CLOUDY    35  31  85 E6        30.05S FOG     WCI  30
ALTURAS        CLOUDY    33  29  85 W5        30.00F WCI  29
$$
CAZ011-012-071-082000-
SIERRA NEVADA MTNS

CITY           SKY/WX    TMP DP  RH WIND       PRES   REMARKS
BLUE CANYON    LGT RAIN  41  40  96 S15       30.15S VSB 1/4
TRUCKEE        CLOUDY    43  37  81 SE9G16    30.11R
TAHOE VLY ARPT CLOUDY    45  35  68 S9G33     30.09S
MAMMOTH LAKES  CLOUDY    34  29  83 SE10      30.18F WCI  26
$$



USA.gov is the U.S. government's official web portal to all federal, state and local government web resources and services.